BEACONC [HTS] 1 01328C 65032A 22183.98750000 -.00000078 00000+0 -12006-3 0 1838 2 01328 41.1853 80.1620 0257052 349.1521 206.4110 13.38683472 11 BEACONC [SGF] 1 01328C 65032A 22183.00000000 .00000002 00000+0 27929-5 0 1836 2 01328 41.1853 84.3865 0257135 344.0196 127.3881 13.38683139 18 STARLETTE [DGF] 1 07646C 75010A 22184.00000000 -.00000010 00000+0 -74791-5 0 1844 2 07646 49.8249 48.8526 0205851 328.9494 320.7594 13.82312838 14 STARLETTE [HTS] 1 07646C 75010A 22183.98750000 -.00000003 00000+0 -19622-5 0 1835 2 07646 49.8247 48.9007 0205855 328.9057 258.5585 13.82312820 15 STARLETTE [SGF] 1 07646C 75010A 22183.00000000 .00000005 00000+0 41049-5 0 1834 2 07646 49.8248 52.7989 0205852 325.6455 24.4363 13.82312767 15 LAGEOS1 [DGF] 1 08820C 76039A 22184.00000000 .00000000 00000+0 00000+0 0 1844 2 08820 109.8552 44.3214 0045071 251.4405 350.5321 6.38664920 10 LAGEOS1 [HTS] 1 08820C 76039A 22183.97916667 .00000000 00000+0 00000+0 0 1833 2 08820 109.8552 44.3142 0045071 251.4426 302.6345 6.38664932 10 LAGEOS1 [SGF] 1 08820C 76039A 22183.00000000 .00000000 00000+0 00000+0 0 1832 2 08820 109.8553 43.9789 0045067 251.6519 211.3398 6.38664935 10 AJISAI [DGF] 1 16908C 86061A 22184.00000000 -.00000019 00000+0 -13318-3 0 1848 2 16908 50.0082 271.2395 0011397 102.2581 320.4944 12.44496906 12 AJISAI [HTS] 1 16908C 86061A 22183.98611111 -.00000017 00000+0 -11878-3 0 1831 2 16908 50.0081 271.2818 0011404 102.2383 258.2543 12.44496879 12 AJISAI [SGF] 1 16908C 86061A 22183.00000000 .00000004 00000+0 30134-4 0 1834 2 16908 50.0083 274.3143 0011407 99.7355 160.2846 12.44496772 11 ETALON1 [DGF] 1 19751C 89001C 22184.00000000 .00000000 00000+0 00000+0 0 1842 2 19751 64.3068 121.8526 0023723 213.3367 291.7589 2.13156259 15 ETALON1 [HTS] 1 19751C 89001C 22183.93750000 .00000000 00000+0 00000+0 0 1834 2 19751 64.3067 121.8546 0023699 213.4445 243.6912 2.13156326 17 ETALON1 [SGF] 1 19751C 89001C 22183.00000000 .00000000 00000+0 00000+0 0 1830 2 19751 64.3067 121.8869 0023715 213.4659 244.2669 2.13156316 16 ETALON2 [DGF] 1 20026C 89039C 22184.00000000 .00000000 00000+0 00000+0 0 1840 2 20026 65.5405 359.8574 0018427 218.3829 199.1152 2.13204366 19 ETALON2 [HTS] 1 20026C 89039C 22183.93750000 .00000000 00000+0 00000+0 0 1832 2 20026 65.5405 359.8594 0018424 218.4786 151.0486 2.13204446 17 ETALON2 [SGF] 1 20026C 89039C 22183.00000000 .00000000 00000+0 00000+0 0 1838 2 20026 65.5406 359.8911 0018449 218.5251 151.4427 2.13204480 13 LAGEOS2 [DGF] 1 22195C 92070B 22184.00000000 .00000000 00000+0 00000+0 0 1848 2 22195 52.6565 99.9677 0138185 275.6625 43.9313 6.47293932 15 LAGEOS2 [HTS] 1 22195C 92070B 22183.97916667 .00000000 00000+0 00000+0 0 1837 2 22195 52.6562 99.9815 0138184 275.6551 355.3826 6.47293892 17 LAGEOS2 [SGF] 1 22195C 92070B 22183.00000000 .00000000 00000+0 00000+0 0 1836 2 22195 52.6563 100.6002 0138180 275.2275 233.6720 6.47293828 11 STELLA [DGF] 1 22824C 93061B 22184.00000000 .00000001 00000+0 23589-6 0 1843 2 22824 98.9627 205.3123 0007469 109.2955 147.6296 14.27391418 10 STELLA [HTS] 1 22824C 93061B 22183.98750000 .00000024 00000+0 99716-5 0 1839 2 22824 98.9625 205.2992 0007466 108.9209 83.8079 14.27391337 16 STELLA [SGF] 1 22824C 93061B 22183.00000000 .00000025 00000+0 10315-4 0 1838 2 22824 98.9624 204.2870 0007461 111.5607 49.6494 14.27391284 18 LARETS [DGF] 1 27944C 03042F 22184.00000000 .00000054 00000+0 10459-4 0 1849 2 27944 98.2150 312.8821 0011531 229.2823 328.2681 14.63244737 19 LARETS [HTS] 1 27944C 03042F 22183.98750000 .00000037 00000+0 71384-5 0 1832 2 27944 98.2152 312.8695 0011476 229.5497 262.1937 14.63244714 13 LARETS [SGF] 1 27944C 03042F 22183.00000000 .00000068 00000+0 13279-4 0 1835 2 27944 98.2152 311.8860 0011453 232.7682 100.2357 14.63244385 15 TERRASARX [GFZ] 1 31698C 07026A 22184.54145833 .00000768 00000+0 36655-4 0 1847 2 31698 97.4458 191.9107 0001749 99.5038 111.2897 15.19153191 15 GLONASS106 [COD] 1 32275C 07052A 22183.99979167 .00000000 00000+0 00000+0 0 1839 2 32275 66.0835 4.1546 0001472 175.1054 132.3190 2.13104229 10 GLONASS106 [NER] 1 32275C 07052A 22183.00000000 .00000000 00000+0 00000+0 0 1832 2 32275 66.0835 4.1877 0001451 175.3256 85.0903 2.13104345 15 GLONASS105 [COD] 1 32276C 07052B 22183.99979167 .00000000 00000+0 00000+0 0 1830 2 32276 66.0971 4.2558 0008318 341.5431 274.1750 2.13103481 16 GLONASS105 [NER] 1 32276C 07052B 22183.00000000 .00000000 00000+0 00000+0 0 1833 2 32276 66.0971 4.2888 0008362 341.6240 227.0881 2.13103610 16 GLONASS107 [COD] 1 32393C 07065A 22183.99979167 .00000000 00000+0 00000+0 0 1834 2 32393 64.3812 240.8966 0001004 136.4816 60.5616 2.13103173 11 GLONASS107 [NER] 1 32393C 07065A 22183.00000000 .00000000 00000+0 00000+0 0 1837 2 32393 64.3814 240.9307 0001059 137.1757 12.8561 2.13103205 10 GLONASS116 [COD] 1 36111C 09070A 22183.99979167 .00000000 00000+0 00000+0 0 1834 2 36111 64.3561 120.5218 0004887 311.8581 50.5399 2.13099344 19 GLONASS116 [NER] 1 36111C 09070A 22183.00000000 .00000000 00000+0 00000+0 0 1837 2 36111 64.3559 120.5560 0004963 311.7426 3.6573 2.13099432 19 COMPASSG1 [SHA] 1 36287C 10001A 22183.00000000 -.00000156 00000+0 00000+0 0 1830 2 36287 0.8943 77.3564 0005173 107.8815 239.3363 1.00269999 15 CRYOSAT2 [ESA] 1 36508C 10013A 22184.00000000 .00000161 00000+0 40091-4 0 1845 2 36508 92.0366 287.8566 0005158 166.0913 6.8331 14.51900758 19 TANDEMX [GFZ] 1 36605C 10030A 22184.54145833 .00000614 00000+0 29271-4 0 1845 2 36605 97.4458 191.9138 0002146 98.1459 112.6480 15.19153057 10 COMPASSI3 [SHA] 1 37384C 11013A 22183.00000000 -.00000119 00000+0 00000+0 0 1832 2 37384 60.3085 54.1148 0018970 180.8790 149.9130 1.00252646 14 GALILEO101 [COD] 1 37846C 11060A 22183.99979167 .00000000 00000+0 00000+0 0 1832 2 37846 57.0028 20.9136 0003591 50.4486 254.5626 1.70475174 15 GALILEO101 [ESA] 1 37846C 11060A 22183.99979167 .00000000 00000+0 00000+0 0 1832 2 37846 57.0028 20.9136 0003591 50.4499 254.5612 1.70475173 13 GALILEO101 [GAL] 1 37846C 11060A 22184.01020833 .00000000 00000+0 00000+0 0 1844 2 37846 57.0028 20.9133 0003590 50.4533 260.9508 1.70475172 12 GALILEO102 [COD] 1 37847C 11060B 22183.99979167 .00000000 00000+0 00000+0 0 1833 2 37847 57.0035 20.9133 0002958 13.8592 337.8282 1.70475526 12 GALILEO102 [ESA] 1 37847C 11060B 22183.99979167 .00000000 00000+0 00000+0 0 1833 2 37847 57.0035 20.9133 0002957 13.8602 337.8272 1.70475526 12 GALILEO102 [GAL] 1 37847C 11060B 22184.01020833 .00000000 00000+0 00000+0 0 1845 2 37847 57.0035 20.9130 0002957 13.8612 344.2192 1.70475526 13 GLONASS128 [COD] 1 37867C 11064A 22183.99979167 .00000000 00000+0 00000+0 0 1839 2 37867 64.6447 121.8840 0021951 239.3685 28.6706 2.13101856 19 GLONASS128 [NER] 1 37867C 11064A 22183.00000000 .00000000 00000+0 00000+0 0 1832 2 37867 64.6446 121.9178 0021990 239.6234 341.4094 2.13101934 12 GLONASS129 [COD] 1 37868C 11064B 22183.99979167 .00000000 00000+0 00000+0 0 1830 2 37868 64.6524 121.9488 0019340 240.7523 205.3918 2.13101727 17 GLONASS129 [NER] 1 37868C 11064B 22183.00000000 .00000000 00000+0 00000+0 0 1833 2 37868 64.6522 121.9827 0019401 240.8625 158.2758 2.13101810 15 GLONASS127 [COD] 1 37869C 11064C 22183.99979167 .00000000 00000+0 00000+0 0 1831 2 37869 64.6597 121.9572 0023829 257.6906 146.4835 2.13102091 19 GLONASS127 [NER] 1 37869C 11064C 22183.00000000 .00000000 00000+0 00000+0 0 1834 2 37869 64.6595 121.9910 0023886 257.7695 99.3974 2.13102184 15 COMPASSI5 [SHA] 1 37948C 11073A 22183.00000000 -.00000105 00000+0 00000+0 0 1839 2 37948 50.3024 289.1183 0084733 218.1891 226.7972 1.00290846 10 LARES [DGF] 1 38077C 12006A 22184.00000000 -.00000033 00000+0 -20266-3 0 1843 2 38077 69.4895 240.7422 0010738 314.9559 178.5219 12.54931417 15 LARES [HTS] 1 38077C 12006A 22183.98611111 -.00000041 00000+0 -25071-3 0 1837 2 38077 69.4894 240.7664 0010705 314.7956 115.9485 12.54931432 12 LARES [SGF] 1 38077C 12006A 22183.00000000 -.00000016 00000+0 -10100-3 0 1838 2 38077 69.4895 242.4507 0010697 315.6414 341.0279 12.54931363 13 COMPASSM3 [SHA] 1 38250C 12018A 22183.00000000 .00000000 00000+0 00000+0 0 1839 2 38250 56.6920 353.0801 0020499 250.2944 353.1745 1.86234343 11 GALILEO103 [COD] 1 38857C 12055A 22183.99979167 .00000000 00000+0 00000+0 0 1830 2 38857 55.1430 141.2727 0004858 273.1201 7.5171 1.70473755 17 GALILEO103 [ESA] 1 38857C 12055A 22183.99979167 .00000000 00000+0 00000+0 0 1830 2 38857 55.1430 141.2727 0004858 273.1195 7.5177 1.70473755 15 GALILEO103 [GAL] 1 38857C 12055A 22184.01020833 .00000000 00000+0 00000+0 0 1842 2 38857 55.1430 141.2724 0004858 273.1181 13.9121 1.70473755 17 GALILEO104 [ESA] 1 38858C 12055B 22183.99979167 .00000000 00000+0 00000+0 0 1831 2 38858 55.1431 141.2742 0002417 278.0007 21.0162 1.70474041 13 GALILEO104 [GAL] 1 38858C 12055B 22184.01020833 .00000000 00000+0 00000+0 0 1843 2 38858 55.1431 141.2739 0002417 278.0142 27.3957 1.70474040 19 SARAL [CNE] 1 39086C 13009A 22184.00000000 .00000140 00000+0 52043-4 0 1844 2 39086 98.5479 9.4076 0001066 154.7465 354.9676 14.32049623 16 GLONASS131 [COD] 1 39155C 13019A 22183.99979167 .00000000 00000+0 00000+0 0 1833 2 39155 64.8084 122.3156 0022357 235.1973 77.2335 2.13102010 12 GLONASS131 [NER] 1 39155C 13019A 22183.00000000 .00000000 00000+0 00000+0 0 1836 2 39155 64.8083 122.3492 0022378 235.4258 29.9984 2.13102096 14 IRNSS1A [ISR] 1 39199C 13034A 22183.99979167 .00000151 00000+0 00000+0 0 1835 2 39199 32.4597 85.1466 0017408 179.1747 71.6410 1.00272103 15 KOMPSAT5 [KGS] 1 39227C 13042A 22182.00000000 .00001178 00000+0 84397-4 0 1823 2 39227 97.6301 7.5067 0001152 81.9073 229.7933 15.04492219 16 SWARMB [ESA] 1 39451C 13067A 22184.00000000 .00001791 00000+0 82141-4 0 1849 2 39451 87.7496 56.6635 0002685 103.7268 224.9065 15.20527735 10 SWARMA [ESA] 1 39452C 13067B 22184.00000000 .00000164 00000+0 52107-5 0 1843 2 39452 87.3606 218.9831 0002957 86.5351 226.2252 15.32640000 11 SWARMC [ESA] 1 39453C 13067C 22184.00000000 .00002867 00000+0 91395-4 0 1847 2 39453 87.3456 218.4230 0002862 87.2167 226.3406 15.32604568 12 GLONASS132 [COD] 1 39620C 14012A 22183.99979167 .00000000 00000+0 00000+0 0 1834 2 39620 65.8417 2.6198 0011189 332.6713 14.2328 2.13103265 18 GLONASS132 [NER] 1 39620C 14012A 22183.00000000 .00000000 00000+0 00000+0 0 1837 2 39620 65.8417 2.6531 0011209 332.6296 327.2689 2.13103358 18 IRNSS1B [ISR] 1 39635C 14017A 22183.99979167 .00000156 00000+0 00000+0 0 1837 2 39635 28.7112 264.8466 0022374 188.6731 242.4415 1.00274902 15 GLONASS133 [COD] 1 40001C 14032A 22183.99979167 .00000000 00000+0 00000+0 0 1831 2 40001 65.7812 2.4799 0006186 178.5652 26.9664 2.13102491 19 GLONASS133 [NER] 1 40001C 14032A 22183.00000000 .00000000 00000+0 00000+0 0 1834 2 40001 65.7812 2.5132 0006118 178.6359 339.8927 2.13102604 15 GALILEO201 [COD] 1 40128C 14050A 22183.99979167 .00000000 00000+0 00000+0 0 1831 2 40128 50.2749 331.6645 1626868 124.6059 358.2957 1.85519210 18 GALILEO201 [ESA] 1 40128C 14050A 22183.99979167 .00000000 00000+0 00000+0 0 1831 2 40128 50.2749 331.6645 1626868 124.6059 358.2957 1.85519209 16 GALILEO201 [GAL] 1 40128C 14050A 22184.01020833 .00000000 00000+0 00000+0 0 1843 2 40128 50.2749 331.6641 1626867 124.6063 5.2526 1.85519208 16 GALILEO202 [COD] 1 40129C 14050B 22183.99979167 .00000000 00000+0 00000+0 0 1832 2 40129 50.2996 330.7257 1623978 125.4154 183.0359 1.85519660 15 GALILEO202 [ESA] 1 40129C 14050B 22183.99979167 .00000000 00000+0 00000+0 0 1832 2 40129 50.2996 330.7257 1623978 125.4154 183.0359 1.85519659 13 GALILEO202 [GAL] 1 40129C 14050B 22184.01020833 .00000000 00000+0 00000+0 0 1844 2 40129 50.2996 330.7253 1623977 125.4158 189.9928 1.85519658 18 IRNSS1C [ISR] 1 40269C 14061A 22183.99979167 -.00000075 00000+0 00000+0 0 1832 2 40269 2.9931 128.0193 0021251 9.6208 226.3019 1.00273026 12 GLONASS134 [COD] 1 40315C 14075A 22183.99979167 .00000000 00000+0 00000+0 0 1836 2 40315 63.6881 240.6270 0019201 211.3017 162.2920 2.13101582 12 GLONASS134 [NER] 1 40315C 14075A 22183.00000000 .00000000 00000+0 00000+0 0 1839 2 40315 63.6883 240.6620 0019199 211.3211 115.2654 2.13101588 13 GALILEO203 [COD] 1 40544C 15017A 22183.99979167 .00000000 00000+0 00000+0 0 1837 2 40544 56.7980 20.9448 0001016 228.4469 211.1850 1.70476042 14 GALILEO203 [ESA] 1 40544C 15017A 22183.99979167 .00000000 00000+0 00000+0 0 1837 2 40544 56.7980 20.9448 0001015 228.4396 211.1923 1.70476042 13 GALILEO203 [GAL] 1 40544C 15017A 22184.01020833 .00000000 00000+0 00000+0 0 1849 2 40544 56.7980 20.9445 0001015 228.4276 217.5973 1.70476042 12 GALILEO204 [ESA] 1 40545C 15017B 22183.99979167 .00000000 00000+0 00000+0 0 1838 2 40545 56.8039 20.9572 0001479 182.3227 102.1987 1.70475736 11 GALILEO204 [GAL] 1 40545C 15017B 22184.01020833 .00000000 00000+0 00000+0 0 1840 2 40545 56.8039 20.9569 0001481 182.2888 108.6256 1.70475744 11 IRNSS1D [ISR] 1 40547C 15018A 22183.99979167 -.00000227 00000+0 00000+0 0 1833 2 40547 28.9412 264.8805 0022372 189.8975 298.0577 1.00271973 13 GALILEO205 [COD] 1 40889C 15045A 22183.99979167 .00000000 00000+0 00000+0 0 1830 2 40889 55.6126 261.5359 0003283 4.0938 63.3722 1.70473909 11 GALILEO205 [ESA] 1 40889C 15045A 22183.99979167 .00000000 00000+0 00000+0 0 1830 2 40889 55.6126 261.5359 0003283 4.0914 63.3747 1.70473908 11 GALILEO205 [GAL] 1 40889C 15045A 22184.01020833 .00000000 00000+0 00000+0 0 1842 2 40889 55.6126 261.5356 0003285 4.0842 69.7748 1.70473905 18 GALILEO206 [COD] 1 40890C 15045B 22183.99979167 .00000000 00000+0 00000+0 0 1832 2 40890 55.6116 261.5317 0001924 333.0595 318.8985 1.70473947 11 GALILEO206 [ESA] 1 40890C 15045B 22183.99979167 .00000000 00000+0 00000+0 0 1832 2 40890 55.6116 261.5317 0001924 333.0585 318.8995 1.70473947 11 GALILEO206 [GAL] 1 40890C 15045B 22184.01020833 .00000000 00000+0 00000+0 0 1844 2 40890 55.6116 261.5315 0001925 333.0546 325.2963 1.70473948 15 GALILEO209 [COD] 1 41174C 15079A 22183.99979167 .00000000 00000+0 00000+0 0 1835 2 41174 55.1594 140.9762 0005164 309.8427 235.0677 1.70474185 14 GALILEO209 [ESA] 1 41174C 15079A 22183.99979167 .00000000 00000+0 00000+0 0 1835 2 41174 55.1594 140.9762 0005163 309.8460 235.0644 1.70474184 13 GALILEO209 [GAL] 1 41174C 15079A 22184.01020833 .00000000 00000+0 00000+0 0 1847 2 41174 55.1594 140.9760 0005163 309.8502 241.4532 1.70474182 13 GALILEO208 [COD] 1 41175C 15079B 22183.99979167 .00000000 00000+0 00000+0 0 1836 2 41175 55.1577 140.9749 0004447 309.6690 100.5592 1.70474146 13 GALILEO208 [ESA] 1 41175C 15079B 22183.99979167 .00000000 00000+0 00000+0 0 1836 2 41175 55.1577 140.9749 0004446 309.6686 100.5596 1.70474147 12 GALILEO208 [GAL] 1 41175C 15079B 22184.01020833 .00000000 00000+0 00000+0 0 1848 2 41175 55.1577 140.9746 0004446 309.6672 106.9540 1.70474147 13 JASON3 [CNE] 1 41240C 16002A 22184.00000000 .00000002 00000+0 79038-5 0 1846 2 41240 66.0405 256.7806 0008351 269.3412 29.3234 12.80929729 15 JASON3 [HTS] 1 41240C 16002A 22183.98611111 -.00000045 00000+0 -19352-3 0 1832 2 41240 66.0405 256.8091 0008352 269.5201 325.1041 12.80929862 12 IRNSS1E [ISR] 1 41241C 16003A 22183.99979167 -.00000224 00000+0 00000+0 0 1837 2 41241 30.0104 84.3770 0017155 178.2915 130.0449 1.00269119 14 GLONASS135 [COD] 1 41330C 16008A 22183.99979167 .00000000 00000+0 00000+0 0 1832 2 41330 65.5812 2.1678 0009228 197.8400 191.5467 2.13102846 15 GLONASS135 [NER] 1 41330C 16008A 22183.00000000 .00000000 00000+0 00000+0 0 1835 2 41330 65.5812 2.2015 0009217 198.0551 144.3272 2.13102907 17 IRNSS1F [ISR] 1 41384C 16015A 22183.99979167 .00000245 00000+0 00000+0 0 1830 2 41384 2.2005 155.3022 0017499 189.9383 328.0980 1.00275522 15 COMPASSI6B [SHA] 1 41434C 16021A 22183.00000000 -.00000096 00000+0 00000+0 0 1831 2 41434 58.1192 52.6848 0043748 216.1767 107.2384 1.00280309 12 GALILEO211 [COD] 1 41549C 16030A 22183.99979167 .00000000 00000+0 00000+0 0 1839 2 41549 55.7573 261.4664 0003456 307.0965 29.8767 1.70475451 18 GALILEO211 [ESA] 1 41549C 16030A 22183.99979167 .00000000 00000+0 00000+0 0 1839 2 41549 55.7573 261.4664 0003456 307.0963 29.8769 1.70475450 17 GALILEO211 [GAL] 1 41549C 16030A 22184.01020833 .00000000 00000+0 00000+0 0 1841 2 41549 55.7573 261.4661 0003457 307.0925 36.2738 1.70475450 11 GALILEO210 [COD] 1 41550C 16030B 22183.99979167 .00000000 00000+0 00000+0 0 1831 2 41550 55.7568 261.4678 0003564 271.7066 245.6686 1.70475516 18 GALILEO210 [ESA] 1 41550C 16030B 22183.99979167 .00000000 00000+0 00000+0 0 1831 2 41550 55.7568 261.4678 0003564 271.7075 245.6676 1.70475516 17 GALILEO210 [GAL] 1 41550C 16030B 22184.01020833 .00000000 00000+0 00000+0 0 1843 2 41550 55.7568 261.4675 0003564 271.7102 252.0579 1.70475517 10 GEOIK2 [SPN] 1 41579C 16034A 22182.00000000 .00000010 00000+0 90878-5 0 1826 2 41579 99.2210 195.0645 0001153 122.0445 146.7283 13.85894700 16 GALILEO207 [COD] 1 41859C 16069A 22183.99979167 .00000000 00000+0 00000+0 0 1835 2 41859 54.8198 141.1537 0005290 298.1096 66.8631 1.70472841 12 GALILEO207 [ESA] 1 41859C 16069A 22183.99979167 .00000000 00000+0 00000+0 0 1835 2 41859 54.8198 141.1537 0005289 298.1095 66.8632 1.70472841 10 GALILEO207 [GAL] 1 41859C 16069A 22184.01020833 .00000000 00000+0 00000+0 0 1847 2 41859 54.8198 141.1534 0005290 298.1070 73.2586 1.70472841 12 GALILEO212 [COD] 1 41860C 16069B 22183.99979167 .00000000 00000+0 00000+0 0 1837 2 41860 54.8173 141.1512 0003989 317.9104 137.0547 1.70472842 11 GALILEO212 [ESA] 1 41860C 16069B 22183.99979167 .00000000 00000+0 00000+0 0 1837 2 41860 54.8173 141.1512 0003989 317.9130 137.0521 1.70472842 12 GALILEO212 [GAL] 1 41860C 16069B 22184.01020833 .00000000 00000+0 00000+0 0 1849 2 41860 54.8173 141.1510 0003989 317.9151 143.4429 1.70472841 10 GALILEO213 [COD] 1 41861C 16069C 22183.99979167 .00000000 00000+0 00000+0 0 1838 2 41861 54.8197 141.1565 0004920 280.0605 310.6240 1.70473007 11 GALILEO213 [ESA] 1 41861C 16069C 22183.99979167 .00000000 00000+0 00000+0 0 1838 2 41861 54.8197 141.1565 0004920 280.0584 310.6261 1.70473006 19 GALILEO213 [GAL] 1 41861C 16069C 22184.01020833 .00000000 00000+0 00000+0 0 1840 2 41861 54.8197 141.1562 0004919 280.0555 317.0219 1.70473006 16 GALILEO214 [COD] 1 41862C 16069D 22183.99979167 .00000000 00000+0 00000+0 0 1839 2 41862 54.8181 141.1510 0004032 284.7582 215.6660 1.70472909 14 GALILEO214 [ESA] 1 41862C 16069D 22183.99979167 .00000000 00000+0 00000+0 0 1839 2 41862 54.8181 141.1510 0004032 284.7634 215.6609 1.70472907 13 GALILEO214 [GAL] 1 41862C 16069D 22184.01020833 .00000000 00000+0 00000+0 0 1841 2 41862 54.8181 141.1507 0004031 284.7707 222.0465 1.70472905 19 QZS2 [QSS] 1 42738C 17028A 22183.00000000 -.00000132 00000+0 00000+0 0 1838 2 42738 41.7475 263.9702 0758987 269.3285 247.3794 1.00282635 16 TECHNOSAT [DLR] 1 42829C 17042E 22184.00000000 .00001053 00000+0 10426-3 0 1846 2 42829 97.4197 37.2300 0012578 319.9663 150.9323 14.91890973 14 QZS3 [QSS] 1 42917C 17048A 22183.00000000 -.00000268 00000+0 00000+0 0 1839 2 42917 0.0754 223.4127 0002144 255.0828 288.4872 1.00275660 10 GLONASS137 [COD] 1 42939C 17055A 22183.99979167 .00000000 00000+0 00000+0 0 1831 2 42939 64.1478 241.3072 0009599 242.6240 266.3401 2.13101999 18 GLONASS137 [NER] 1 42939C 17055A 22183.00000000 .00000000 00000+0 00000+0 0 1834 2 42939 64.1479 241.3416 0009581 242.3838 219.5724 2.13102048 16 QZS4 [QSS] 1 42965C 17062A 22183.00000000 -.00000166 00000+0 00000+0 0 1835 2 42965 40.7661 1.9258 0745463 271.6901 140.7344 1.00246652 12 BEIDOU3M2 [SHA] 1 43002C 17069B 22183.00000000 .00000000 00000+0 00000+0 0 1831 2 43002 55.5598 111.2351 0009161 318.6093 4.5645 1.86231252 14 GALILEO215 [COD] 1 43055C 17079A 22183.99979167 .00000000 00000+0 00000+0 0 1837 2 43055 55.7330 261.2986 0003092 264.1395 295.2764 1.70474636 14 GALILEO215 [ESA] 1 43055C 17079A 22183.99979167 .00000000 00000+0 00000+0 0 1837 2 43055 55.7330 261.2986 0003092 264.1421 295.2738 1.70474636 15 GALILEO215 [GAL] 1 43055C 17079A 22184.01020833 .00000000 00000+0 00000+0 0 1849 2 43055 55.7330 261.2983 0003093 264.1502 301.6586 1.70474638 18 GALILEO216 [COD] 1 43056C 17079B 22183.99979167 .00000000 00000+0 00000+0 0 1838 2 43056 55.7333 261.2983 0004749 270.7763 109.2835 1.70474782 12 GALILEO216 [ESA] 1 43056C 17079B 22183.99979167 .00000000 00000+0 00000+0 0 1838 2 43056 55.7333 261.2983 0004749 270.7787 109.2810 1.70474781 10 GALILEO216 [GAL] 1 43056C 17079B 22184.01020833 .00000000 00000+0 00000+0 0 1840 2 43056 55.7333 261.2981 0004750 270.7839 115.6688 1.70474780 11 GALILEO217 [COD] 1 43057C 17079C 22183.99979167 .00000000 00000+0 00000+0 0 1839 2 43057 55.7314 261.2980 0004132 282.3039 322.5959 1.70474731 11 GALILEO217 [ESA] 1 43057C 17079C 22183.99979167 .00000000 00000+0 00000+0 0 1839 2 43057 55.7314 261.2980 0004132 282.3055 322.5943 1.70474731 12 GALILEO217 [GAL] 1 43057C 17079C 22184.01020833 .00000000 00000+0 00000+0 0 1841 2 43057 55.7313 261.2977 0004132 282.3106 328.9821 1.70474733 11 GALILEO218 [COD] 1 43058C 17079D 22183.99979167 .00000000 00000+0 00000+0 0 1830 2 43058 55.7316 261.2955 0005229 267.7080 202.1397 1.70474668 15 GALILEO218 [ESA] 1 43058C 17079D 22183.99979167 .00000000 00000+0 00000+0 0 1830 2 43058 55.7316 261.2955 0005229 267.7117 202.1360 1.70474667 15 GALILEO218 [GAL] 1 43058C 17079D 22184.01020833 .00000000 00000+0 00000+0 0 1842 2 43058 55.7315 261.2952 0005229 267.7187 208.5219 1.70474666 10 BEIDOU3M3 [SHA] 1 43208C 18018B 22183.00000000 .00000000 00000+0 00000+0 0 1834 2 43208 55.5187 111.3176 0008799 308.7572 241.2388 1.86231496 14 PAZ [HDS] 1 43215C 18020A 22184.00000000 .00001134 00000+0 54091-4 0 1840 2 43215 97.4453 191.1159 0001730 101.3470 132.2704 15.19154575 16 BEIDOU3M9 [SHA] 1 43245C 18029A 22183.00000000 .00000000 00000+0 00000+0 0 1837 2 43245 55.2252 349.9399 0001227 99.6658 300.0899 1.86232680 18 BEIDOU3M10 [SHA] 1 43246C 18029B 22183.00000000 .00000000 00000+0 00000+0 0 1838 2 43246 55.2222 349.9696 0003813 17.4780 68.8206 1.86232911 11 IRNSS1I [ISR] 1 43286C 18035A 22183.99979167 .00000156 00000+0 00000+0 0 1838 2 43286 29.1063 97.1032 0017867 182.3010 56.5570 1.00270754 17 GRACEFO1 [GFZ] 1 43476C 18047A 22183.99979167 .00000994 00000+0 40083-4 0 1832 2 43476 88.9865 36.3801 0013299 296.1025 349.5263 15.24823592 14 GRACEFO2 [GFZ] 1 43477C 18047B 22183.99979167 .00001006 00000+0 40596-4 0 1837 2 43477 88.9865 36.3831 0013308 296.1669 347.9233 15.24825802 18 GLONASS138 [COD] 1 43508C 18053A 22183.99979167 .00000000 00000+0 00000+0 0 1833 2 43508 64.9714 122.3189 0008436 238.4539 302.6146 2.13102522 15 GLONASS138 [NER] 1 43508C 18053A 22183.00000000 .00000000 00000+0 00000+0 0 1836 2 43508 64.9712 122.3523 0008509 238.9227 255.1382 2.13102580 13 GALILEO221 [COD] 1 43564C 18060A 22183.99979167 .00000000 00000+0 00000+0 0 1833 2 43564 57.1802 20.7643 0001488 293.7727 238.2869 1.70475879 14 GALILEO221 [ESA] 1 43564C 18060A 22183.99979167 .00000000 00000+0 00000+0 0 1833 2 43564 57.1802 20.7643 0001488 293.7795 238.2802 1.70475878 15 GALILEO221 [GAL] 1 43564C 18060A 22184.01020833 .00000000 00000+0 00000+0 0 1845 2 43564 57.1803 20.7640 0001487 293.7833 244.6693 1.70475876 12 GALILEO222 [COD] 1 43565C 18060B 22183.99979167 .00000000 00000+0 00000+0 0 1834 2 43565 57.1824 20.7648 0001423 321.8504 75.2779 1.70475846 12 GALILEO222 [ESA] 1 43565C 18060B 22183.99979167 .00000000 00000+0 00000+0 0 1834 2 43565 57.1824 20.7648 0001423 321.8522 75.2761 1.70475847 14 GALILEO222 [GAL] 1 43565C 18060B 22184.01020833 .00000000 00000+0 00000+0 0 1846 2 43565 57.1824 20.7645 0001422 321.8524 81.6688 1.70475848 12 GALILEO219 [COD] 1 43566C 18060C 22183.99979167 .00000000 00000+0 00000+0 0 1835 2 43566 57.1829 20.7667 0001188 334.0008 287.7755 1.70475863 15 GALILEO219 [ESA] 1 43566C 18060C 22183.99979167 .00000000 00000+0 00000+0 0 1835 2 43566 57.1829 20.7667 0001187 333.9952 287.7811 1.70475862 12 GALILEO219 [GAL] 1 43566C 18060C 22184.01020833 .00000000 00000+0 00000+0 0 1847 2 43566 57.1829 20.7665 0001186 333.9800 294.1892 1.70475860 10 GALILEO220 [COD] 1 43567C 18060D 22183.99979167 .00000000 00000+0 00000+0 0 1836 2 43567 57.1827 20.7671 0001099 314.8980 171.7839 1.70475762 18 GALILEO220 [ESA] 1 43567C 18060D 22183.99979167 .00000000 00000+0 00000+0 0 1836 2 43567 57.1827 20.7671 0001099 314.9168 171.7651 1.70475761 18 GALILEO220 [GAL] 1 43567C 18060D 22184.01020833 .00000000 00000+0 00000+0 0 1848 2 43567 57.1827 20.7668 0001098 314.9439 178.1309 1.70475760 14 HY2B [SHA] 1 43655C 18081A 22183.00000000 -.00000075 00000+0 -73053-4 0 1837 2 43655 99.3415 191.5375 0001909 116.2475 103.2653 13.79303941 13 GLONASS139 [COD] 1 43687C 18086A 22183.99979167 .00000000 00000+0 00000+0 0 1837 2 43687 64.3627 241.6277 0011337 262.7451 201.7494 2.13102219 18 GLONASS139 [NER] 1 43687C 18086A 22183.00000000 .00000000 00000+0 00000+0 0 1830 2 43687 64.3629 241.6618 0011306 262.6997 154.7868 2.13102261 18 GLONASS140 [COD] 1 44299C 19030A 22183.99979167 .00000000 00000+0 00000+0 0 1837 2 44299 64.4345 241.5138 0013652 281.8976 317.1649 2.13102064 19 GLONASS140 [NER] 1 44299C 19030A 22183.00000000 .00000000 00000+0 00000+0 0 1830 2 44299 64.4347 241.5479 0013626 281.6999 270.3556 2.13102069 15 GLONASS141 [COD] 1 44850C 19088A 22183.99979167 .00000000 00000+0 00000+0 0 1833 2 44850 64.9566 122.1708 0013215 262.8775 321.6467 2.13102282 10 GLONASS141 [NER] 1 44850C 19088A 22183.00000000 .00000000 00000+0 00000+0 0 1836 2 44850 64.9565 122.2042 0013304 263.1368 274.3805 2.13102345 12 GLONASS142 [COD] 1 45358C 20018A 22183.99979167 .00000000 00000+0 00000+0 0 1832 2 45358 64.9191 2.7631 0006825 237.4665 196.5186 2.13102825 11 HY2C [SHA] 1 46469C 20066A 22183.00000000 -.00000045 00000+0 -40803-4 0 1833 2 46469 65.9952 215.9661 0012314 248.4168 205.2419 13.83375857 15 SENTINEL6A [EUM] 1 46984C 20086A 22184.00000000 .00000047 00000+0 20176-3 0 1849 2 46984 66.0403 256.7274 0007933 271.5013 189.9046 12.80928957 15 ELSADCHS [ATS] 1 47944C 21022N 22183.99652778 .00000141 00000+0 91960-5 0 1834 2 47944 97.5263 83.5691 0020396 86.3426 17.9764 15.07803807 17 TUBIN [DLR] 1 48900C 21059X 22182.00000000 .00001891 00000+0 10423-3 0 1828 2 48900 97.5575 311.1916 0011248 63.7880 84.4725 15.14010726 19 TUBIN [TUB] 1 48900C 21059X 22184.33339429 .00003318 00000+0 18277-3 0 1849 2 48900 97.5568 313.5071 0010919 56.8074 201.4785 15.14021939 16 QZS1R [QSS] 1 49336C 21096A 22183.00000000 -.00000183 00000+0 00000+0 0 1835 2 49336 34.4921 101.5996 0756555 271.4988 40.5167 1.00254227 10 GALILEO223 [ESA] 1 49809C 21116A 22183.99979167 .00000000 00000+0 00000+0 0 1837 2 49809 57.1752 20.6654 0002371 133.1595 83.5290 1.70475936 12 GALILEO223 [GAL] 1 49809C 21116A 22184.01020833 .00000000 00000+0 00000+0 0 1849 2 49809 57.1752 20.6651 0002372 133.1622 89.9192 1.70475934 10 GALILEO224 [ESA] 1 49810C 21116B 22183.99979167 .00000000 00000+0 00000+0 0 1839 2 49810 57.1760 20.6634 0002336 116.0125 213.1570 1.70475904 18 GALILEO224 [GAL] 1 49810C 21116B 22184.01020833 .00000000 00000+0 00000+0 0 1841 2 49810 57.1760 20.6631 0002336 116.0210 219.5415 1.70475904 18 ELSADTGT [ATS] 1 51288C 21022AQ 22183.99652778 .00000970 00000+0 62645-4 0 1837 2 51288 97.5254 83.5967 0020035 86.0630 90.4325 15.08157220 14